Location: Unspecified
(0.0000°N, 0.0000°E)
Time: 08:41:11
(UTC+00:00)

A-11 Canister half - Visible Passes

Search period start: 25 April 2017 00:00
Search period end: 05 May 2017 00:00
Orbit: 1516 x 1684 km, 47.2° (Epoch: 23 April)

Date Brightness Start Highest point End Pass type
(mag) Time Alt. Az. Time Alt. Az. Time Alt. Az.
25 Apr 10.7 04:05:52 10° S 04:12:43 23° SE 04:19:31 10° E visible
25 Apr 10.4 18:59:49 10° WNW 19:08:42 35° SW 19:17:33 10° SSE visible
26 Apr 10.7 03:43:19 10° S 03:49:47 21° SE 03:56:10 10° E visible
26 Apr 10.3 18:36:38 10° WNW 18:45:45 38° SW 18:54:50 10° SSE visible
27 Apr 10.8 03:21:49 12° S 03:26:50 19° SE 03:32:45 10° E visible
27 Apr 9.0 05:22:28 10° SW 05:31:45 83° NW 05:41:04 10° NE visible
27 Apr 10.3 18:13:29 10° WNW 18:22:48 41° SW 18:32:06 10° SSE visible
28 Apr 10.7 03:00:54 14° SSE 03:03:52 17° SE 03:09:16 10° E visible
28 Apr 9.0 04:59:34 10° SW 05:08:52 90° NW 05:18:10 10° NE visible
29 Apr 10.8 02:39:59 15° SE 02:40:54 15° SE 02:45:41 10° ESE visible
29 Apr 9.0 04:38:15 16° SW 04:45:59 84° SE 04:55:16 10° NE visible
30 Apr 11.0 02:19:03 13° SE 02:19:03 13° SE 02:21:55 10° ESE visible
30 Apr 9.0 04:17:18 26° SSW 04:23:07 77° SE 04:32:21 10° NE visible
01 May 9.0 03:56:19 39° SSW 04:00:14 71° SE 04:09:25 10° NE visible
02 May 9.1 03:35:18 53° S 03:37:21 65° SE 03:46:28 10° NE visible
02 May 11.3 18:31:21 10° WSW 18:33:45 11° SW 18:36:08 10° SSW visible
03 May 9.1 03:14:13 60° SE 03:14:28 60° SE 03:23:30 10° NE visible
03 May 9.9 05:12:28 12° W 05:19:10 28° NW 05:26:40 10° N visible
04 May 9.5 02:53:05 50° E 02:53:05 50° E 03:00:30 10° NE visible
04 May 9.8 04:51:19 19° W 04:56:15 30° NW 05:04:02 10° N visible
